Other Public Products
Issued by NWS Charleston, SC

Home | Current Version | Previous Version | Text Only | Print | Product List | Glossary On
Versions: 1 2 3 4 5 6 7 8 9 10 11 12 13 14 15 16 17 18 19 20 21 22 23 24 25 26 27 28 29 30 31 32 33 34 35 36 37 38 39 40 41 42 43 44 45 46 47 48 49 50
244
FPUS82 KCHS 300212
OPUCHS

TEST...KCHS/KSAV Gateway Observations...TEST
National Weather Service Charleston SC
1000 PM EDT WED MAR 29 2017

NOTE: "fair" indicates few or no clouds below 12,000 feet with no
significant weather and/or obstructions to visibility.

SCZ050-WAZ558-NCZ071-TXZ119-213-PAZ071-DCZ001-FLZ074-172-MI076-
NYZ176-178-MAZ016-IL014-TNZ027-NJZ106-GAZ044-MD014-300300-

...Gateway Observations for Charleston International...

CITY           SKY/WX    TMP DP  RH WIND       PRES   REMARKS
Chas Airport   MOCLDY    67  63  87 E10       30.05R
Seattle        PTCLDY    50  43  77 SW15G22   29.94R
Charlotte      PTCLDY    71  49  45 E8        30.06R
Dallas DFW     PTCLDY    67  53  61 NW21      29.78R
Dallas Love    PTCLDY    69  53  56 NW15      29.79R
Philladelphia  CLEAR     51  26  37 N14       30.22R
Wash National  PTCLDY    57  35  43 NE13      30.19R
Baltimore      PTCLDY    54  31  41 NE16G22   30.19R
Miami          PTCLDY    75  63  66 SE6       30.04R
Detroit        CLOUDY    43  32  65 E12       30.19R
Newark         PTCLDY    48  23  37 N18       30.21R
Laguardia      CLEAR     48  24  39 N14G21    30.20R
J F K          PTCLDY    47  24  40 N18G24    30.21R
Boston Logan   PTCLDY    40  24  53 NW15      30.16R WCI  32
Ft. Lauderdale PTCLDY    75  63  66 SE7       30.03R
Chicago O`Hare LGT RAIN  44  38  79 NE13      30.10R
Chicago Midway LGT RAIN  47  39  74 NE16G23   30.08R
Houston Bush   PTCLDY    71  69  93 SE3       29.78R
Houston Hobby  PTCLDY    73  71  93 CALM      29.78R
Nashville      MOCLDY    73  58  59 SE3       29.90R
Atlanta        PTCLDY    76  57  51 S3        29.99R

$$

GAZ044-118-TXZ119-213-NCZ071-DCZ001-MDZ014-506-PAZ021-071-NJZ106-
NYZ176-178-MAZ106-OHZ011-021-055-MIZ076-KYZ091-ILZ014-INZ047-
MNZ060-ONZ431-300300-

...Gateway Observations for Savannah International...

CITY           SKY/WX    TMP DP  RH WIND       PRES   REMARKS
Savannah Arpt  PTCLDY    68  57  68 SE6       30.03R
Atlanta        PTCLDY    76  57  51 S3        29.99R
Charlotte      PTCLDY    71  49  45 E8        30.06R
Dallas DFW     PTCLDY    67  53  61 NW21      29.78R
Houston Bush   PTCLDY    71  69  93 SE3       29.78R
Wash National  PTCLDY    57  35  43 NE13      30.19R
Wash Dulles    PTCLDY    55  35  47 NE12      30.18R
Baltimore      PTCLDY    54  31  41 NE16G22   30.19R
Philadelphia   CLEAR     51  26  37 N14       30.22R
Newark         PTCLDY    48  23  37 N18       30.21R
Laguardia      CLEAR     48  24  39 N14G21    30.20R
J F K          PTCLDY    47  24  40 N18G24    30.21R
Boston         PTCLDY    40  24  53 NW15      30.16R WCI  32
Pittsburg      MOCLDY    52  30  43 NE8       30.14F
Akron          MOCLDY    47  30  51 NE10      30.18R
Cleveland      CLOUDY    51  29  42 E10       30.20F
Cincinnati     PTCLDY    52  44  74 E10       30.06F
Columbus       PTCLDY    50  37  61 E10       30.11S
Detroit        CLOUDY    43  32  65 E12       30.19R
Chicago O`Hare LGT RAIN  44  38  79 NE13      30.10R
Minneapolis    LGT RAIN  44  38  79 E16       30.14F
Indianapolis   CLOUDY    55  44  66 E15       30.00S
Toronto Canada CLOUDY    43  23  45 NE7       30.28F

$$




USA.gov is the U.S. government's official web portal to all federal, state and local government web resources and services.